User: anonymous   Login
Location: Saint-Maurice-d�Ard�che
(44.5216°N, 4.4002°E)
Time: 19:40:57
(UTC+00:00)
Language:

CZ-2C R/B - Orbit

View from above orbital plane
View from above orbital plane
View from above satellite
View from above satellite

Ground track
Ground track

The orbit data is extracted from the following two-line orbital elements,

1 28480U 04046B   20184.72497948 -.00000023 +00000-0 +64105-5 0  9998
2 28480 098.0770 218.4897 0141975 179.3644 292.3473 14.25724774812616
Epoch (UTC): 02 July 2020 17:23:58
Eccentricity: 0.0141975
inclination: 98.0770°
perigee height: 704 km
apogee height: 908 km
right ascension of ascending node: 218.4897°
argument of perigee: 179.3644°
revolutions per day: 14.25724774
mean anomaly at epoch: 292.3473°
orbit number at epoch: 81261

The dashed part of the orbit path shows where the satellite is in the earth's shadow,  

DLR